Flag for Germany Weather past 2 weeks in Minden, North Rhine-Westphalia, Germany

Now
54 °F

Passing clouds.


Feels Like: 49 °F
Forecast: 46 / 65 °F
Wind: 16 mph from Southwest

Location: Bueckeburg

Current Time: May 7, 2015 at 2:47:17 AM

Latest Report: May 7, 2015 at 1:20 AM


Visibility: N/A

Pressure: 29.89 "Hg

Humidity: 63%

Dew point: 41 °F

Location of MindenLocation

Historic Weather in Minden — Graph

°F

Minden temperature yesterday

Maximum temperature yesterday: 64 °F (at 2:20 PM)
Minimum temperature yesterday: 48 °F (at 12:20 AM)
Average temperature yesterday: 56 °F

Past Weeks' High & Low Weather Summary

 TemperatureHumidityPressure
High77 °F (May 5, 3:04 PM)100% (Apr 23, 7:20 AM)30.42 "Hg (Apr 23, 7:20 AM)
Low30 °F (Apr 28, 5:20 AM)33% (Apr 28, 2:20 PM)29.45 "Hg (May 5, 6:20 AM)
Average52 °F71%29.85 "Hg
* Reported Apr 22 1:20 AM — May 7 1:20 AM, Minden, Weather by CustomWeather, © 2015

Note: Actual official high and low records may vary slightly from our data, if they occured in-between our weather recording intervals... More about our weather records

Advertising

Minden weather history for previous 24 hours

 ConditionsComfort  
Time TempWeatherWind HumidityBarometerVisibility
1:20 AM
Thu, May 7
54 °FPassing clouds.16 mph63%29.89 "HgN/A
12:20 AM54 °FPassing clouds.15 mph63%29.89 "HgN/A
11:20 PM
Wed, May 6
52 °FPassing clouds.9 mph72%29.89 "HgN/A
10:20 PM52 °FPassing clouds.12 mph72%29.89 "HgN/A
9:20 PM52 °FScattered clouds.9 mph62%29.89 "HgN/A
8:20 PM55 °FScattered clouds.13 mph63%29.86 "HgN/A
7:20 PM57 °FBroken clouds.16 mph67%29.86 "HgN/A
6:20 PM54 °FScattered clouds.7 mph77%29.86 "HgN/A
5:20 PM63 °FBroken clouds.20 mph39%29.83 "HgN/A
4:20 PM64 °FScattered clouds.20 mph34%29.80 "HgN/A
3:20 PM64 °FScattered clouds.18 mph34%29.83 "HgN/A
2:20 PM64 °FScattered clouds.17 mph37%29.83 "HgN/A
1:20 PM63 °FPassing clouds.17 mph39%29.83 "HgN/A
12:20 PM63 °FPassing clouds.20 mph39%N/AN/A
11:20 AM61 °FPassing clouds.15 mph48%29.83 "HgN/A
10:20 AM59 °FPassing clouds.17 mph51%29.86 "HgN/A
9:20 AM57 °FPassing clouds.12 mph59%29.86 "HgN/A
8:20 AM57 °FPassing clouds.9 mph59%29.86 "HgN/A
7:20 AM54 °FPassing clouds.7 mph72%29.86 "HgN/A
6:20 AM52 °FPassing clouds.8 mph77%29.83 "HgN/A
5:20 AM52 °FPassing clouds.8 mph77%29.83 "HgN/A
4:20 AM52 °FPassing clouds.10 mph72%29.83 "HgN/A
3:20 AM52 °FPassing clouds.10 mph67%29.83 "HgN/A
2:20 AM50 °FPassing clouds.9 mph67%29.83 "HgN/A
Weather by CustomWeather, © 2015

See weather overviewHow to use our weather pages